Location: Chagrin Falls Park
(41.4139°N, 81.3865°W)
Time: 07:46:08
(UTC+00:00)

Cosmos 1939 Rocket - Pass Details

Date: 29 October 2020
Orbit: 532 x 584 km, 97.4° (Epoch: 28 November)

Event Time Altitude Azimuth Distance (km) Brightness Sun altitude
Rises 23:16:35 0° 156° (SSE) 2,729 6.2 -10.5°
Reaches altitude 10° 23:18:45 10° 151° (SSE) 1,830 5.3 -10.9°
Maximum altitude 23:22:37 54° 74° (ENE) 675 2.9 -11.6°
Drops below altitude 10° 23:26:26 10° 358° (N) 1,816 5.4 -12.3°
Sets 23:28:35 0° 353° (N) 2,706 6.4 -12.7°
